Location: Newark
(49.1939°N, 0.8136°E)
Time: 00:00:43
(UTC+00:00)

Envisat - Pass Details

Date: 22 November 2019
Orbit: 764 x 766 km, 98.1° (Epoch: 10 December)

Event Time Altitude Azimuth Distance (km) Brightness Sun altitude
Rises 05:46:53 0° 25° (NNE) 3,243 6.4 -14.4°
Reaches altitude 10° 05:49:42 10° 40° (NE) 2,312 5.8 -14.0°
Maximum altitude 05:53:40 22° 91° (E) 1,615 5.7 -13.3°
Drops below altitude 10° 05:57:35 10° 142° (SE) 2,297 6.3 -12.7°
Sets 06:00:21 0° 157° (SSE) 3,218 6.8 -12.3°
